Location: Unspecified
(44.0704°N, 88.6889°W)
Time: 19:10:13
(UTC+01:00)

ISS - Visible Passes

Search period start: 22 November 2017 00:00
Search period end: 02 December 2017 00:00
Orbit: 402 x 407 km, 51.6° (Epoch: 22 November)

Date Brightness Start Highest point End Pass type
(mag) Time Alt. Az. Time Alt. Az. Time Alt. Az.
26 Nov -1.2 01:25:09 10° S 01:25:39 13° S 01:25:39 13° S visible
27 Nov -1.5 00:34:21 10° SSE 00:35:36 12° SE 00:35:48 12° SE visible
27 Nov -0.5 02:08:19 10° SW 02:08:29 11° SW 02:08:29 11° SW visible
28 Nov -2.8 01:16:09 10° SW 01:18:32 38° S 01:18:32 38° S visible
29 Nov -2.5 00:24:18 10° SSW 00:27:04 26° SE 00:28:31 19° E visible
29 Nov -0.9 02:00:12 10° WSW 02:01:10 18° W 02:01:10 18° W visible
30 Nov -3.9 01:07:42 10° WSW 01:10:59 79° NNW 01:11:04 78° N visible
01 Dec -3.6 00:15:24 10° SW 00:18:37 58° SE 00:20:53 18° ENE visible
01 Dec -1.1 01:52:17 10° W 01:53:32 19° WNW 01:53:32 19° WNW visible
